• In Deutschland
  • Länderverzeichnis
  • Für 7 Tage
  • Wassertemperatur
  • Satellitenkarten
  • Wetterkarte
  • Widgets
  • user-avatar
    Anmelden

    Stündliche Wetter Eschwege

    Heute, 23 Oktober, Montag

    Zeit Temperatur Niederschläge Wind Luftdruck Luftfeuchtigkeit
    00:00 +6°C° 0 mm 4 m/S 742 mmHg 94%
    01:00 +5°C° 0 mm 3 m/S 742 mmHg 94%
    02:00 +5°C° 0 mm 3 m/S 742 mmHg 94%
    03:00 +5°C° 0 mm 4 m/S 742 mmHg 93%
    04:00 +6°C° 0 mm 4 m/S 742 mmHg 93%
    05:00 +6°C° 0,2 mm 4 m/S 742 mmHg 93%
    06:00 +6°C° 0,2 mm 4 m/S 742 mmHg 92%
    07:00 +6°C° 0,2 mm 4 m/S 743 mmHg 92%
    08:00 +7°C° 0,2 mm 4 m/S 743 mmHg 91%
    09:00 +7°C° 0,2 mm 4 m/S 743 mmHg 89%
    10:00 +8°C° 0,2 mm 4 m/S 743 mmHg 88%
    11:00 +8°C° 0 mm 4 m/S 743 mmHg 86%
    12:00 +10°C° 0 mm 4 m/S 743 mmHg 85%
    13:00 +10°C° 0 mm 4 m/S 743 mmHg 83%
    14:00 +10°C° 0,1 mm 4 m/S 744 mmHg 84%
    15:00 +10°C° 0,1 mm 4 m/S 744 mmHg 85%
    16:00 +10°C° 0,1 mm 4 m/S 744 mmHg 86%
    17:00 +8°C° 0,1 mm 4 m/S 744 mmHg 88%
    18:00 +8°C° 0,1 mm 4 m/S 744 mmHg 89%
    19:00 +8°C° 0,1 mm 4 m/S 745 mmHg 90%
    20:00 +9°C° 0 mm 3 m/S 745 mmHg 91%
    21:00 +9°C° 0 mm 3 m/S 746 mmHg 92%
    22:00 +8°C° 0 mm 3 m/S 746 mmHg 92%
    23:00 +8°C° 0 mm 3 m/S 746 mmHg 94%

    Morgen, 24 Oktober, Dienstag

    Zeit Temperatur Niederschläge Wind Luftdruck Luftfeuchtigkeit
    00:00 +7°C° 0 mm 2 m/S 746 mmHg 95%
    01:00 +7°C° 0 mm 2 m/S 747 mmHg 96%
    02:00 +7°C° 0 mm 2 m/S 747 mmHg 96%
    03:00 +7°C° 0 mm 2 m/S 747 mmHg 96%
    04:00 +7°C° 0 mm 2 m/S 747 mmHg 97%
    05:00 +7°C° 0,1 mm 2 m/S 747 mmHg 96%
    06:00 +8°C° 0,1 mm 2 m/S 747 mmHg 96%
    07:00 +8°C° 0,1 mm 2 m/S 747 mmHg 96%
    08:00 +9°C° 0,1 mm 2 m/S 747 mmHg 95%
    09:00 +10°C° 0,1 mm 2 m/S 747 mmHg 94%
    10:00 +12°C° 0,1 mm 2 m/S 748 mmHg 92%
    11:00 +11°C° 0 mm 3 m/S 748 mmHg 91%
    12:00 +12°C° 0 mm 3 m/S 748 mmHg 89%
    13:00 +13°C° 0 mm 3 m/S 748 mmHg 88%
    14:00 +13°C° 0 mm 3 m/S 747 mmHg 88%
    15:00 +13°C° 0 mm 3 m/S 747 mmHg 89%
    16:00 +13°C° 0 mm 3 m/S 747 mmHg 89%
    17:00 +13°C° 0 mm 3 m/S 747 mmHg 91%
    18:00 +13°C° 0 mm 3 m/S 747 mmHg 93%
    19:00 +12°C° 0 mm 3 m/S 747 mmHg 95%
    20:00 +12°C° 0,1 mm 3 m/S 747 mmHg 95%
    21:00 +12°C° 0,1 mm 3 m/S 748 mmHg 95%
    22:00 +12°C° 0,1 mm 3 m/S 748 mmHg 96%
    23:00 +12°C° 0 mm 3 m/S 747 mmHg 96%

    übermorgen, 25 Oktober, Mittwoch

    Zeit Temperatur Niederschläge Wind Luftdruck Luftfeuchtigkeit
    00:00 +12°C° 0 mm 3 m/S 747 mmHg 96%
    01:00 +12°C° 0 mm 3 m/S 747 mmHg 96%
    02:00 +12°C° 0 mm 3 m/S 747 mmHg 96%
    03:00 +12°C° 0 mm 3 m/S 747 mmHg 96%
    04:00 +12°C° 0 mm 3 m/S 747 mmHg 96%
    05:00 +12°C° 0 mm 3 m/S 747 mmHg 95%
    06:00 +13°C° 0 mm 3 m/S 747 mmHg 95%
    07:00 +13°C° 0 mm 3 m/S 747 mmHg 94%
    08:00 +14°C° 0 mm 4 m/S 748 mmHg 91%
    09:00 +15°C° 0 mm 5 m/S 748 mmHg 89%
    10:00 +15°C° 0 mm 5 m/S 748 mmHg 86%
    11:00 +16°C° 0 mm 5 m/S 748 mmHg 83%
    12:00 +16°C° 0 mm 5 m/S 748 mmHg 80%
    13:00 +17°C° 0 mm 5 m/S 748 mmHg 77%
    14:00 +16°C° 0 mm 5 m/S 748 mmHg 78%
    15:00 +17°C° 0 mm 4 m/S 748 mmHg 79%
    16:00 +17°C° 0 mm 4 m/S 748 mmHg 79%
    17:00 +14°C° 0 mm 3 m/S 748 mmHg 84%
    18:00 +13°C° 0 mm 3 m/S 748 mmHg 89%
    19:00 +13°C° 0 mm 2 m/S 749 mmHg 93%
    20:00 +13°C° 0 mm 2 m/S 749 mmHg 94%
    21:00 +13°C° 0 mm 2 m/S 749 mmHg 94%
    22:00 +12°C° 0 mm 2 m/S 749 mmHg 94%
    23:00 +12°C° 0 mm 2 m/S 749 mmHg 94%

    26 Oktober, Donnerstag

    Zeit Temperatur Niederschläge Wind Luftdruck Luftfeuchtigkeit
    00:00 +12°C° 0 mm 2 m/S 749 mmHg 95%
    01:00 +12°C° 0 mm 2 m/S 749 mmHg 95%
    02:00 +10°C° 0 mm 2 m/S 749 mmHg 95%
    03:00 +10°C° 0 mm 2 m/S 749 mmHg 95%
    04:00 +10°C° 0 mm 2 m/S 749 mmHg 95%
    05:00 +10°C° 0 mm 2 m/S 749 mmHg 96%
    06:00 +10°C° 0 mm 2 m/S 749 mmHg 96%
    07:00 +10°C° 0 mm 2 m/S 749 mmHg 96%
    08:00 +12°C° 0 mm 2 m/S 749 mmHg 93%
    09:00 +13°C° 0 mm 2 m/S 749 mmHg 90%
    10:00 +13°C° 0 mm 3 m/S 749 mmHg 87%
    11:00 +14°C° 0 mm 3 m/S 748 mmHg 83%
    12:00 +15°C° 0 mm 4 m/S 748 mmHg 78%
    13:00 +17°C° 0 mm 4 m/S 748 mmHg 74%
    14:00 +17°C° 0 mm 3 m/S 748 mmHg 75%
    15:00 +17°C° 0 mm 3 m/S 748 mmHg 77%
    16:00 +17°C° 0 mm 2 m/S 747 mmHg 79%
    17:00 +16°C° 0 mm 2 m/S 747 mmHg 83%
    18:00 +15°C° 0 mm 2 m/S 747 mmHg 87%
    19:00 +13°C° 0 mm 2 m/S 747 mmHg 91%
    20:00 +13°C° 0 mm 2 m/S 747 mmHg 92%
    21:00 +13°C° 0 mm 2 m/S 747 mmHg 92%
    22:00 +13°C° 0 mm 2 m/S 747 mmHg 93%
    23:00 +12°C° 0 mm 3 m/S 746 mmHg 93%

    27 Oktober, Freitag

    Zeit Temperatur Niederschläge Wind Luftdruck Luftfeuchtigkeit
    00:00 +12°C° 0 mm 3 m/S 746 mmHg 93%
    01:00 +11°C° 0 mm 3 m/S 746 mmHg 94%
    02:00 +12°C° 0,1 mm 3 m/S 745 mmHg 93%
    03:00 +12°C° 0,1 mm 3 m/S 745 mmHg 93%
    04:00 +12°C° 0,1 mm 3 m/S 744 mmHg 93%
    05:00 +11°C° 0,3 mm 3 m/S 744 mmHg 92%
    06:00 +11°C° 0,3 mm 3 m/S 744 mmHg 92%
    07:00 +11°C° 0,3 mm 3 m/S 744 mmHg 91%
    08:00 +11°C° 1,2 mm 3 m/S 744 mmHg 91%
    09:00 +10°C° 1,2 mm 4 m/S 744 mmHg 91%
    10:00 +10°C° 1,2 mm 4 m/S 744 mmHg 90%
    11:00 +9°C° 0,4 mm 5 m/S 744 mmHg 88%
    12:00 +9°C° 0,4 mm 5 m/S 744 mmHg 85%
    13:00 +10°C° 0,4 mm 5 m/S 744 mmHg 82%
    14:00 +10°C° 0,1 mm 5 m/S 744 mmHg 82%
    15:00 +10°C° 0,1 mm 5 m/S 744 mmHg 81%
    16:00 +11°C° 0,1 mm 4 m/S 744 mmHg 80%
    17:00 +10°C° 0 mm 4 m/S 744 mmHg 84%
    18:00 +8°C° 0 mm 4 m/S 745 mmHg 88%
    19:00 +8°C° 0 mm 3 m/S 745 mmHg 92%
    20:00 +7°C° 0 mm 4 m/S 745 mmHg 91%
    21:00 +7°C° 0 mm 4 m/S 744 mmHg 91%
    22:00 +7°C° 0 mm 4 m/S 744 mmHg 91%
    23:00 +7°C° 0,1 mm 5 m/S 744 mmHg 89%

    28 Oktober, Samstag

    Zeit Temperatur Niederschläge Wind Luftdruck Luftfeuchtigkeit
    00:00 +7°C° 0,1 mm 5 m/S 743 mmHg 88%
    01:00 +7°C° 0,1 mm 6 m/S 742 mmHg 86%
    02:00 +7°C° 0,5 mm 6 m/S 741 mmHg 87%
    03:00 +7°C° 0,5 mm 6 m/S 741 mmHg 87%
    04:00 +7°C° 0,5 mm 6 m/S 740 mmHg 88%
    05:00 +7°C° 0,6 mm 6 m/S 739 mmHg 88%
    06:00 +6°C° 0,6 mm 7 m/S 739 mmHg 88%
    07:00 +6°C° 0,6 mm 7 m/S 738 mmHg 88%
    08:00 +8°C° 0,4 mm 7 m/S 738 mmHg 87%
    09:00 +8°C° 0,4 mm 7 m/S 738 mmHg 86%
    10:00 +9°C° 0,4 mm 7 m/S 738 mmHg 84%
    11:00 +9°C° 0,5 mm 8 m/S 738 mmHg 83%
    12:00 +7°C° 0,5 mm 8 m/S 738 mmHg 82%
    13:00 +7°C° 0,5 mm 8 m/S 738 mmHg 81%
    14:00 +8°C° 0,1 mm 7 m/S 738 mmHg 81%
    15:00 +8°C° 0,1 mm 7 m/S 739 mmHg 82%
    16:00 +8°C° 0,1 mm 7 m/S 739 mmHg 82%
    17:00 +8°C° 0,1 mm 6 m/S 740 mmHg 84%
    18:00 +8°C° 0,1 mm 6 m/S 741 mmHg 85%
    19:00 +7°C° 0,1 mm 5 m/S 741 mmHg 87%
    20:00 +7°C° 0 mm 5 m/S 742 mmHg 88%
    21:00 +7°C° 0 mm 5 m/S 743 mmHg 89%
    22:00 +7°C° 0 mm 4 m/S 744 mmHg 90%
    23:00 +7°C° 0 mm 4 m/S 744 mmHg 90%

    29 Oktober, Sonntag

    Zeit Temperatur Niederschläge Wind Luftdruck Luftfeuchtigkeit
    00:00 +7°C° 0 mm 4 m/S 744 mmHg 90%
    01:00 +7°C° 0 mm 4 m/S 745 mmHg 91%
    02:00 +6°C° 0 mm 4 m/S 745 mmHg 91%
    03:00 +6°C° 0 mm 4 m/S 745 mmHg 91%
    04:00 +7°C° 0 mm 3 m/S 745 mmHg 92%
    05:00 +6°C° 0 mm 4 m/S 745 mmHg 92%
    06:00 +6°C° 0 mm 4 m/S 744 mmHg 92%
    07:00 +6°C° 0 mm 4 m/S 744 mmHg 92%
    08:00 +6°C° 0 mm 4 m/S 744 mmHg 91%
    09:00 +7°C° 0 mm 4 m/S 744 mmHg 89%
    10:00 +8°C° 0 mm 5 m/S 744 mmHg 88%
    11:00 +8°C° 0,1 mm 5 m/S 744 mmHg 88%
    12:00 +9°C° 0,1 mm 5 m/S 744 mmHg 88%
    13:00 +9°C° 0,1 mm 5 m/S 743 mmHg 88%
    14:00 +9°C° 0,1 mm 6 m/S 743 mmHg 87%
    15:00 +9°C° 0,1 mm 6 m/S 742 mmHg 87%
    16:00 +9°C° 0,1 mm 6 m/S 742 mmHg 86%
    17:00 +9°C° 0,1 mm 6 m/S 742 mmHg 87%
    18:00 +9°C° 0,1 mm 5 m/S 742 mmHg 87%
    19:00 +8°C° 0,1 mm 5 m/S 742 mmHg 87%
    20:00 +8°C° 0,4 mm 6 m/S 741 mmHg 88%
    21:00 +8°C° 0,4 mm 6 m/S 741 mmHg 89%
    22:00 +9°C° 0,4 mm 6 m/S 741 mmHg 90%
    23:00 +9°C° 0,2 mm 6 m/S 741 mmHg 89%
    Mehr zeigen